Main Menu

Like Us on Facebook

Search

Login

Username:

Password:


Lost Password?

Register now!

Forecast for your location

Detailed conditions for your location

Current US satellite images

Current US radar image

Current US warnings and watches

Various US weather maps

The raw METAR code for this location is KSFO 290056Z 28021G26KT 10SM FEW006 SCT009 BKN013 BKN200 14/11 A3000 RMK AO2 PK WND 27026/0049 SLP157 T01440106

Decoded METAR for this location (may not be available)